Location: Lewisville
(33.0462°N, 96.9942°W)
Time: 06:57:18
(UTC-05:00)

X-37B - Pass Details

Date: 31 August 2021
Orbit: 381 x 393 km, 45.0° (Epoch: 29 August)

Event Time Altitude Azimuth Distance (km) Brightness Sun altitude
Rises 21:00:10 0° 307° (NW) 2,278 6.0 -14.3°
Reaches altitude 10° 21:02:16 10° 311° (NW) 1,419 4.6 -14.7°
Maximum altitude 21:05:25 57° 32° (NNE) 462 0.8 -15.3°
Enters shadow 21:06:22 37° 90° (E) 614 1.1 -15.5°
